Location: Unspecified
(0.0000°N, 0.0000°E)
Time: 17:42:26
(UTC+00:00)

AO-73 - Pass Details

Date: 02 October 2021
Orbit: 580 x 662 km, 97.6° (Epoch: 22 October)

Event Time Altitude Azimuth Distance (km) Brightness Sun altitude
Rises 04:11:49 0° 13° (NNE) 2,780 ? -24.3°
Reaches altitude 10° 04:13:57 10° 14° (NNE) 1,885 ? -23.8°
Maximum altitude 04:18:02 81° 100° (E) 592 ? -22.8°
Drops below altitude 10° 04:22:10 10° 188° (S) 1,910 ? -21.8°
Sets 04:24:20 0° 189° (S) 2,822 ? -21.2°
